Peoria, IL

9:33 PM CDT on October 18, 2019 (GMT -0500)
Greater Peoria Regional

Weather History for KPIA - August, 2019

Change the Weather History Date:

Tuesday, August 13, 2019

  Actual Average Record
Temperature  
Mean Temperature 78 °F 74 °F  
Max Temperature 85 °F 84 °F 104 °F (1936)
Min Temperature 71 °F 64 °F 49 °F (1964)
Degree Days  
Heating Degree Days 0 0  
Month to date heating degree days 0 0  
Since 1 June heating degree days 5 19  
Since 1 July heating degree days 0 1  
Cooling Degree Days 13 9  
Month to date cooling degree days 138 126  
Year to date cooling degree days 850 757  
Since 1 June cooling degree days 769 676  
Growing Degree Days 28 (Base 50)    
Moisture  
Dew Point 70 °F    
Average Humidity 75    
Maximum Humidity 94    
Minimum Humidity 55    
Precipitation  
Precipitation 0.00 in 0.10 in 2.33 in (1956)
Month to date precipitation 1.48 1.35  
Year to date precipitation 31.16 23.06  
Snow  
Snow 0.00 in 0.00 in 0.00 in ()
Month to date snowfall 0.0 0.0  
Since 1 June snowfall 0.0 0.0  
Since 1 July snowfall 0.0 0.0  
Snow Depth 0.00 in    
Sea Level Pressure  
Sea Level Pressure 29.84 in    
Wind  
Wind Speed 4 mph (NNW)    
Max Wind Speed 12 mph    
Max Gust Speed 20 mph    
Visibility 7 miles    
Events      
T = Trace of Precipitation, MM = Missing Value Source: NWS Daily Summary

Daily Weather History Graph

Daily Weather History Graph

Search for Another Location

Airport or City:

Astronomy

Aug. 13, 2019 Rise Set
Actual Time 6:07 AM CDT 7:59 PM CDT
Civil Twilight 5:37 AM CDT 8:29 PM CDT
Nautical Twilight 5:01 AM CDT 9:04 PM CDT
Astronomical Twilight 4:22 AM CDT 9:43 PM CDT
Moon 7:14 PM CDT (8/13) 4:08 AM CDT (8/13)
Length of Visible Light 14h 51m
Length of Day
13h 52m
Waxing Gibbous, 97% of the Moon is Illuminated
Aug 13
Waxing Gibbous
Aug 15
Full
Aug 23
Last Quarter
Aug 30
New
Sep 5
First Quarter

Hourly Weather History & Observations

Time (CDT) Temp. Heat Index Dew Point Humidity Pressure Visibility Wind Dir Wind Speed Gust Speed Precip Events Conditions
12:04 AM 75.9 °F - 73.9 °F 94% 29.79 in 6.0 mi NE 6.9 mph - N/A   Mostly Cloudy
12:41 AM 75.9 °F - 73.0 °F 91% 29.79 in 5.0 mi NE 5.8 mph - N/A   Mostly Cloudy
12:54 AM 75.9 °F - 73.0 °F 91% 29.78 in 5.0 mi NE 4.6 mph - N/A   Overcast
1:23 AM 75.0 °F - 73.0 °F 94% 29.78 in 4.0 mi ENE 5.8 mph - N/A   Overcast
1:50 AM 73.4 °F - 71.6 °F 94% 29.78 in 6.0 mi NNE 3.5 mph - N/A   Mostly Cloudy
1:54 AM 73.9 °F - 72.0 °F 93% 29.78 in 6.0 mi NNW 4.6 mph - N/A   Mostly Cloudy
2:32 AM 73.0 °F - 71.1 °F 93% 29.78 in 5.0 mi Calm Calm - N/A   Mostly Cloudy
2:40 AM 73.0 °F - 71.1 °F 93% 29.78 in 5.0 mi Calm Calm - N/A   Partly Cloudy
2:54 AM 73.0 °F - 71.1 °F 93% 29.76 in 5.0 mi NNE 4.6 mph - N/A   Clear
3:18 AM 72.0 °F - 70.0 °F 93% 29.78 in 8.0 mi NNE 4.6 mph - N/A   Scattered Clouds
3:54 AM 72.0 °F - 69.1 °F 91% 29.78 in 6.0 mi Calm Calm - N/A   Clear
4:04 AM 72.0 °F - 70.0 °F 93% 29.80 in 6.0 mi Calm Calm - N/A   Mostly Cloudy
4:18 AM 72.0 °F - 70.0 °F 93% 29.80 in 7.0 mi Calm Calm - N/A   Mostly Cloudy
4:54 AM 72.0 °F - 70.0 °F 93% 29.78 in 5.0 mi North 3.5 mph - N/A   Mostly Cloudy
5:02 AM 72.0 °F - 70.0 °F 93% 29.79 in 5.0 mi Calm Calm - N/A   Scattered Clouds
5:44 AM 71.1 °F - 69.1 °F 93% 29.82 in 2.5 mi Calm Calm - N/A   Mostly Cloudy
5:54 AM 71.1 °F - 69.1 °F 93% 29.81 in 4.0 mi Calm Calm - N/A   Mostly Cloudy
6:24 AM 71.1 °F - 69.1 °F 93% 29.83 in 2.0 mi NNW 4.6 mph - N/A   Overcast
6:54 AM 71.1 °F - 69.1 °F 93% 29.82 in 2.0 mi NNW 4.6 mph - N/A   Overcast
7:54 AM 72.0 °F - 69.1 °F 91% 29.84 in 2.5 mi North 3.5 mph - N/A   Overcast
8:01 AM 72.0 °F - 69.1 °F 91% 29.86 in 3.0 mi Variable 4.6 mph - N/A   Overcast
8:21 AM 73.4 °F - 69.8 °F 88% 29.87 in 4.0 mi North 5.8 mph - N/A   Overcast
8:54 AM 73.9 °F - 70.0 °F 87% 29.86 in 6.0 mi Variable 4.6 mph - N/A   Overcast
9:54 AM 73.9 °F - 70.0 °F 87% 29.87 in 10.0 mi North 6.9 mph - N/A   Overcast
10:30 AM 77.0 °F - 69.8 °F 78% 29.89 in 10.0 mi Variable 6.9 mph - N/A   Overcast
10:54 AM 78.1 °F - 70.0 °F 76% 29.87 in 10.0 mi Variable 5.8 mph - N/A   Overcast
11:09 AM 80.1 °F 83.6 °F 71.1 °F 74% 29.88 in 10.0 mi Variable 5.8 mph - N/A   Overcast
11:37 AM 80.1 °F 83.2 °F 70.0 °F 71% 29.88 in 10.0 mi NW 8.1 mph - N/A   Overcast
11:47 AM 80.6 °F 83.9 °F 69.8 °F 70% 29.89 in 10.0 mi NNW 10.4 mph - N/A   Mostly Cloudy
11:54 AM 81.0 °F 84.1 °F 69.1 °F 67% 29.87 in 10.0 mi North 8.1 mph - N/A   Mostly Cloudy
12:03 PM 81.0 °F 84.4 °F 70.0 °F 69% 29.89 in 10.0 mi NNW 8.1 mph - N/A   Mostly Cloudy
12:54 PM 80.1 °F 83.2 °F 70.0 °F 71% 29.87 in 10.0 mi Variable 3.5 mph - N/A   Overcast
1:54 PM 81.0 °F 84.1 °F 69.1 °F 67% 29.87 in 10.0 mi NW 8.1 mph - N/A   Overcast
2:54 PM 82.9 °F 86.5 °F 69.1 °F 63% 29.87 in 10.0 mi NW 5.8 mph 17.3 mph N/A   Mostly Cloudy
3:54 PM 82.9 °F 86.5 °F 69.1 °F 63% 29.87 in 10.0 mi Variable 5.8 mph - N/A   Scattered Clouds
4:23 PM 84.9 °F 89.4 °F 70.0 °F 61% 29.89 in 10.0 mi WNW 8.1 mph - N/A   Mostly Cloudy
4:54 PM 84.0 °F 86.5 °F 66.9 °F 56% 29.88 in 10.0 mi NW 9.2 mph 19.6 mph N/A   Scattered Clouds
5:54 PM 82.9 °F 85.8 °F 68.0 °F 60% 29.87 in 10.0 mi NW 8.1 mph - N/A   Clear
6:54 PM 82.0 °F 84.9 °F 68.0 °F 62% 29.88 in 10.0 mi NW 3.5 mph - N/A   Clear
7:54 PM 79.0 °F - 68.0 °F 69% 29.88 in 10.0 mi Calm Calm - N/A   Clear
8:54 PM 75.0 °F - 68.0 °F 79% 29.90 in 10.0 mi Calm Calm - N/A   Clear
9:54 PM 73.0 °F - 66.9 °F 81% 29.91 in 10.0 mi West 3.5 mph - N/A   Clear
10:54 PM 73.0 °F - 66.9 °F 81% 29.92 in 10.0 mi WNW 4.6 mph - N/A   Clear
11:54 PM 73.0 °F - 66.0 °F 79% 29.94 in 10.0 mi WNW 3.5 mph - N/A   Clear